SCP
0 0 0 0 0 0 0 -0 -0 0 -0 0 0 1 0 1 0 0 1 1 1 0 0 0 1 0 0 0 0 -0 0 0 1 1 0 1 1 1 0 0 0 -0 -0 -0
0 -0 0 0 0 0 0 0 0 0 -0 1 0 1 1 0 0 0 0 0 0 0 0 0 0 0 -0 -0 0 0 1 0 1 1 1 1 1 1 1 0 0 0 -0 -0
-0 0 0 0 0 0 0 0 0 0 0 1 0 0 1 1 0 0 0 0 0 0 0 0 0 1 1 1 0 0 1 0 2 1 1 0 1 1 1 0 0 0 0 0
0 -0 -0 0 0 0 0 0 0 0 0 0 0 0 0 0 0 0 0 0 0 0 0 0 0 1 1 1 0 0 0 0 -0 1 0 0 1 1 0 0 0 1 1 1
0 -0 -0 0 0 0 0 0 0 0 0 0 0 1 0 0 0 0 0 0 0 0 0 0 0 0 0 1 0 0 0 0 0 0 1 0 0 0 1 0 1 1 1 1
0 0 0 0 0 0 0 0 0 0 -0 0 -0 0 0 0 0 0 0 -0 0 0 0 0 0 0 0 0 0 0 0 0 0 0 1 0 0 0 0 1 1 0 0 1
0 0 0 0 0 0 0 -0 -0 0 0 -0 -0 0 0 0 0 0 0 0 0 0 0 0 0 0 0 0 0 0 0 0 0 0 -0 -0 0 -0 -0 -0 -0 -0 0 0
0 0 0 0 0 -0 0 -0 -0 -0 0 -0 -0 0 0 0 0 0 0 0 0 0 0 0 0 0 0 0 0 0 0 0 0 0 0 0 0 0 0 0 0 0 0 0
0 0 0 0 0 0 0 0 -0 -0 0 0 -0 0 0 0 0 0 0 0 0 0 0 0 0 0 0 0 0 0 0 0 0 0 0 0 0 0 0 0 0 0 0 0
0 0 0 0 0 0 0 0 0 -0 -0 0 0 0 0 0 0 0 0 0 0 0 0 0 0 0 0 0 0 0 0 0 0 0 0 0 0 0 0 0 0 0 0 0
0 0 0 0 0 0 0 0 0 0 0 0 0 0 0 0 0 0 0 0 0 0 0 0 0 0 0 0 0 0 0 0 0 0 0 0 0 0 0 0 0 0 0 0
0 0 0 0 0 0 0 0 0 0 0 0 0 0 0 0 0 0 0 0 0 0 0 0 0 0 0 0 0 0 0 0 0 0 0 0 0 0 0 0 0 0 0 0
0 0 0 0 0 0 0 0 0 0 0 0 0 -0 0 0 0 0 0 0 0 0 0 0 0 0 0 0 0 0 0 0 0 0 0 0 0 0 0 0 0 0 0 0
-0 0 -0 -0 -0 -0 0 0 0 -0 -0 0 0 -0 -0 -0 -0 -0 0 0 0 0 0 0 0 0 0 0 0 0 0 0 0 0 0 0 0 0 0 0 0 0 -0 0
0 0 0 -0 -0 -0 0 0 -0 -0 -0 0 -0 -0 -0 -0 0 0 0 0 0 0 0 0 0 0 0 0 0 0 0 0 0 0 0 0 0 0 0 0 0 0 0 0
-0 -0 0 0 0 -0 -0 0 -0 0 -0 -0 -0 -0 -0 0 0 0 0 0 0 0 0 0 0 0 0 0 0 0 0 0 0 0 0 0 0 0 0 0 0 0 0 0
0 -0 0 -0 -0 -0 0 0 0 0 0 0 0 0 0 0 0 0 0 0 0 0 0 0 0 0 0 0 0 0 0 0 0 0 0 0 0 0 0 0 0 0 0 0
0 0 0 0 -0 -0 0 0 0 0 0 0 0 0 0 0 0 0 0 0 0 0 0 0 0 0 0 0 0 0 0 0 0 0 0 0 0 0 0 0 0 0 0 0
0 0 0 0 0 0 0 0 0 0 0 0 0 0 0 0 0 0 0 0 0 0 0 0 0 0 0 0 0 0 0 0 0 0 0 0 0 0 0 0 0 0 0 0
0 0 0 0 0 0 0 0 0 0 0 0 0 0 0 0 0 0 0 0 0 0 0 0 0 0 0 0 0 0 0 0 0 0 0 0 0 0 0 0 0 0 0 0
0 0 0 0 0 0 0 0 0 0 0 0 0 0 0 0 0 0 0 0 0 0 0 0 0 0 0 0 0 0 0 0 0 0 0 0 0 0 0 0 0 0 0 0
0 0 0 0 0 0 0 0 0 0 0 0 0 0 0 0 0 0 0 0 0 0 0 0 0 0 0 -0 -0 0 0 0 0 0 0 0 0 0 0 0 0 0 0 0
0 0 0 0 0 0 0 0 0 0 0 0 0 0 0 0 0 0 0 0 0 0 0 0 0 0 0 -0 -0 0 0 0 0 0 0 0 0 0 0 0 0 0 0 0
0 0 0 0 0 0 0 0 0 0 0 0 0 0 0 0 0 0 0 0 0 0 0 0 0 0 0 -0 0 0 0 0 0 0 0 -0 0 0 0 0 0 0 0 0
0 0 0 0 0 0 0 0 0 0 0 0 0 0 0 0 0 0 0 0 0 0 0 0 0 0 0 0 0 0 0 0 0 0 0 0 0 0 0 0 0 0 0 0
0 0 0 0 0 0 0 0 0 0 0 0 0 0 0 0 0 0 0 0 0 0 0 0 0 0 0 0 0 0 0 0 0 0 0 0 0 0 0 0 0 0 0 0
0 0 0 0 0 0 0 0 0 0 0 0 0 0 0 0 0 0 0 0 0 0 0 0 0 0 0 0 0 0 0 0 0 0 0 0 0 0 0 0 0 0 0 0
Wind_Speed_500mb
38 33 35 35 33 31 23 28 16 35 55 18 10 11 11 8 10 18 24 27 27 20 22 23 19 8 2 16 29 40 23 82 35 34 36 39 39 37 34 31 29 29 28 29
35 41 42 36 32 31 27 20 24 26 38 9 15 2 14 22 19 18 16 19 22 16 13 13 8 13 4 25 4 20 22 17 24 34 36 35 33 36 36 31 30 30 27 29
30 32 31 27 20 8 12 15 17 19 32 2 9 10 20 23 22 23 23 23 25 25 12 16 18 25 36 33 22 46 39 46 52 40 35 34 38 44 36 26 22 31 30 29
22 26 32 6 11 2 15 8 6 6 18 21 15 14 18 26 24 26 21 19 19 19 17 21 14 10 12 17 14 22 23 35 40 40 35 34 40 38 37 39 47 40 44 40
18 23 25 20 5 8 17 16 5 6 4 15 30 3 21 20 23 18 17 14 17 18 17 16 19 21 21 28 22 23 24 31 27 29 28 40 44 48 47 45 47 29 39 47
20 22 28 15 7 13 10 8 9 7 8 30 18 8 13 20 21 21 20 15 17 18 15 13 14 13 13 19 22 24 22 19 23 29 30 36 32 33 34 48 42 48 57 61
19 20 1 12 23 16 9 10 18 5 12 18 4 10 14 18 19 18 21 16 16 22 24 25 21 23 19 14 7 10 13 17 20 29 30 29 31 44 51 61 71 76 68 56
8 13 7 26 5 9 10 24 20 10 1 4 9 11 16 19 16 17 19 19 17 21 25 26 26 30 26 23 20 14 4 1 9 17 20 23 27 30 33 37 46 49 51 55
9 6 18 10 4 4 13 11 11 10 14 14 10 13 16 17 16 18 18 19 19 22 22 21 30 32 26 29 24 21 15 9 8 14 22 21 21 23 25 29 32 34 33 40
16 6 8 7 9 9 19 4 12 13 14 13 15 13 14 14 14 16 17 16 20 19 20 23 22 20 20 20 23 24 25 23 16 13 13 19 26 24 21 24 27 30 31 35
10 9 17 9 7 13 12 8 11 12 14 15 12 10 9 11 11 13 12 13 16 17 17 16 16 18 21 23 24 22 19 18 18 18 20 21 17 21 28 30 37 38 39 33
17 17 9 6 14 6 7 7 5 9 10 8 7 6 6 8 8 8 8 11 12 13 15 17 19 22 27 28 27 23 18 17 22 21 23 21 28 25 21 23 26 34 40 44
24 11 6 5 3 12 10 8 10 10 12 9 6 3 3 3 3 3 6 8 5 7 12 16 21 26 27 27 26 25 22 20 20 20 24 26 27 29 34 33 29 31 32 38
8 4 5 8 11 14 8 14 15 13 11 8 6 5 4 4 3 4 5 2 6 10 14 16 19 25 30 28 28 27 26 26 20 20 21 25 27 27 26 26 27 29 34 37
17 18 5 7 8 10 11 11 13 14 11 11 10 9 9 7 5 6 4 7 14 17 17 19 23 25 25 26 26 29 25 22 21 18 16 23 21 22 19 18 18 27 29 24
19 18 15 12 9 11 11 10 13 10 10 10 9 8 7 5 6 7 9 11 15 18 21 23 23 22 23 25 26 25 24 31 26 16 18 18 17 14 12 10 7 17 25 32
19 17 16 17 14 16 14 11 10 9 8 4 4 3 4 6 7 9 9 12 18 20 20 18 19 18 21 21 23 21 22 22 24 15 17 18 18 17 10 13 16 16 14 13
11 2 3 3 14 17 14 10 7 6 3 3 5 4 6 8 12 12 12 19 22 19 18 17 19 25 17 18 23 22 22 21 16 17 19 18 19 18 10 13 9 11 5 7
7 3 6 9 13 14 12 9 5 3 2 5 12 16 15 14 15 17 16 20 21 21 20 21 26 22 19 22 28 22 23 22 20 18 17 17 13 10 15 10 6 8 4 2
14 15 14 14 12 10 9 6 4 5 9 13 16 17 18 18 18 14 17 20 15 16 19 18 17 15 19 24 28 25 23 21 19 20 13 11 13 6 6 10 9 6 5 11
18 19 16 13 12 9 5 3 7 10 11 11 11 11 11 10 12 17 20 15 14 17 20 17 11 12 16 19 20 19 20 19 18 18 18 15 14 5 4 13 10 7 8 10
12 12 10 8 7 8 7 6 6 4 1 1 2 5 9 13 15 14 12 11 15 24 13 9 8 13 7 11 16 16 14 17 16 16 19 19 11 7 2 7 9 7 7 7
8 11 9 7 7 5 4 5 6 4 5 6 8 9 10 11 8 8 10 12 14 20 15 8 12 7 3 11 12 13 13 13 11 11 13 14 12 11 5 0 4 10 11 9
4 7 4 4 5 8 8 8 8 10 11 13 14 14 12 12 12 12 14 20 24 24 15 16 13 10 12 12 11 12 12 11 8 10 11 13 11 9 10 3 5 2 14 16
5 8 11 12 12 8 10 10 14 17 19 23 24 21 20 18 17 15 16 20 27 24 15 19 18 13 12 15 15 16 16 15 17 15 11 12 10 9 7 6 1 5 7 8
9 7 11 10 9 11 13 16 24 31 35 35 30 23 22 22 24 23 20 20 18 21 16 17 19 20 21 20 18 17 18 17 15 16 18 17 14 12 9 7 8 5 8 13
5 7 8 11 7 13 16 20 23 28 29 29 27 23 25 22 22 25 29 26 24 20 19 19 20 21 19 22 23 22 23 22 20 20 19 18 16 16 16 14 14 15 16 17
Wind_Direction_500mb
282 286 285 284 289 295 280 255 268 303 293 30 41 353 45 45 79 69 61 57 58 75 99 103 108 128 51 331 334 329 279 277 213 211 213 200 201 205 207 216 222 226 226 237
288 273 269 276 285 289 281 291 260 285 293 57 67 293 72 34 44 44 27 34 33 33 38 21 356 242 214 287 34 139 252 252 227 215 218 209 205 210 202 213 227 234 232 233
284 291 285 279 286 322 284 265 306 314 347 127 131 157 68 72 68 62 51 41 45 41 24 52 63 88 103 144 167 132 161 205 209 213 245 239 226 223 216 215 249 256 243 239
269 278 267 15 63 34 310 291 260 273 48 27 324 39 38 28 46 49 39 36 43 46 49 53 50 54 112 97 157 165 208 216 211 197 209 225 222 225 237 246 272 248 248 249
268 261 275 172 84 343 325 298 182 117 87 121 268 317 89 60 57 58 48 35 38 35 33 70 89 101 144 145 159 181 210 219 230 215 220 224 229 249 257 257 249 260 258 263
293 287 280 58 48 4 315 305 135 78 69 197 253 358 84 66 55 53 49 40 30 42 44 57 87 85 101 147 174 183 185 180 209 224 223 239 248 258 247 255 266 264 274 275
278 274 130 10 328 327 290 338 340 216 211 239 259 43 107 78 63 60 67 65 55 48 59 64 60 82 82 89 116 154 200 214 239 252 262 267 252 250 244 256 263 270 269 265
309 287 247 6 313 293 2 328 337 326 11 153 119 113 86 78 69 62 67 70 70 69 61 51 52 62 62 67 72 72 60 229 243 261 271 270 262 262 263 265 264 265 267 265
336 332 337 343 231 119 26 326 30 63 104 123 91 70 72 74 84 91 97 91 81 68 64 55 53 61 55 53 54 56 41 13 323 292 280 279 283 275 275 278 276 276 270 273
322 29 9 176 200 186 145 49 63 68 60 56 67 67 69 74 79 88 89 80 76 71 58 48 38 33 28 20 20 18 18 10 8 357 317 279 258 252 259 260 261 259 267 268
315 41 338 160 128 111 129 112 83 69 54 52 53 63 87 96 78 74 70 59 55 56 49 40 26 15 11 6 6 6 0 360 353 346 349 347 319 292 277 272 272 269 277 274
333 2 327 174 75 5 87 78 44 30 19 18 30 53 85 104 98 85 83 73 55 31 24 14 14 3 359 354 351 342 353 344 332 343 345 331 338 326 306 295 279 270 263 261
313 28 352 75 59 45 15 34 63 32 358 351 4 5 38 35 43 17 64 67 45 3 350 347 355 350 347 343 341 335 332 328 316 329 325 329 328 332 335 319 302 288 279 267
269 157 239 177 171 199 159 95 64 49 44 44 47 41 32 353 3 9 52 48 334 334 323 327 338 335 332 337 334 326 324 327 320 305 313 318 317 326 331 324 320 313 302 283
193 189 201 188 174 142 128 103 70 49 51 56 59 51 41 22 32 53 38 341 317 317 322 330 329 330 326 329 327 322 320 310 298 297 300 312 318 325 328 330 348 358 348 318
182 187 205 219 194 168 142 110 71 58 59 63 55 52 66 64 31 5 346 335 332 328 324 318 317 317 326 328 328 325 316 315 323 307 298 306 307 320 327 326 4 12 16 23
188 206 226 230 202 178 159 133 114 113 114 92 78 55 29 351 351 347 348 334 329 327 320 318 313 322 327 331 329 323 318 315 314 319 296 293 301 301 313 335 325 335 328 7
196 226 252 234 171 168 164 153 134 129 139 220 245 273 274 297 315 321 332 333 331 328 327 326 320 328 343 339 337 340 331 325 323 317 307 300 297 299 296 307 324 315 345 36
238 237 143 140 157 164 168 167 175 196 262 278 273 278 279 284 297 309 316 330 330 332 329 334 323 349 346 356 353 353 342 337 330 324 312 305 304 308 307 304 295 274 269 99
90 100 114 119 126 142 155 166 223 290 296 287 280 280 279 288 294 300 311 322 324 325 333 328 342 353 353 354 356 357 348 345 339 324 327 338 349 337 308 260 201 210 42 85
74 85 88 91 92 93 91 3 339 317 297 289 289 286 289 301 301 298 310 317 330 328 333 339 350 346 352 333 347 339 354 357 4 354 358 360 357 8 59 157 180 153 128 127
34 48 47 48 60 65 55 28 2 18 87 194 331 328 321 313 303 300 293 295 313 318 323 324 339 313 337 349 354 336 344 347 356 10 20 23 13 12 40 197 206 210 218 253
19 54 48 67 80 73 28 11 2 348 318 293 301 309 326 325 306 298 314 313 323 301 311 285 277 308 251 331 326 332 339 341 336 333 341 350 343 1 359 285 243 231 224 221
17 40 359 330 310 294 281 288 311 305 293 287 280 272 276 299 297 300 295 312 319 323 292 246 272 291 269 305 299 306 309 306 332 344 348 9 355 341 340 51 120 152 161 159
280 292 305 310 313 321 314 308 316 303 304 300 292 280 273 275 269 284 287 304 306 315 294 268 261 275 282 290 291 300 302 296 290 292 311 329 336 344 347 330 42 173 196 198
258 293 302 311 316 325 316 321 313 315 313 308 299 283 277 276 274 267 275 288 289 289 278 254 262 268 274 276 281 284 291 299 305 289 285 291 290 291 291 275 277 261 225 210
305 324 309 303 312 329 327 327 326 328 324 315 302 287 282 277 280 273 268 260 271 272 266 260 260 266 274 267 273 278 286 290 290 284 287 285 283 278 268 266 255 247 236 227
Wind_Speed_850mb
38 33 35 35 33 31 23 28 16 35 55 18 10 11 11 8 10 18 24 27 27 20 22 23 19 8 2 16 29 40 23 82 35 34 36 39 39 37 34 31 29 29 28 29
35 41 42 36 32 31 27 20 24 26 38 9 15 2 14 22 19 18 16 19 22 16 13 13 8 13 4 25 4 20 22 17 24 34 36 35 33 36 36 31 30 30 27 29
30 32 31 27 20 8 12 15 17 19 32 2 9 10 20 23 22 23 23 23 25 25 12 16 18 25 36 33 22 46 39 46 52 40 35 34 38 44 36 26 22 31 30 29
22 26 32 6 11 2 15 8 6 6 18 21 15 14 18 26 24 26 21 19 19 19 17 21 14 10 12 17 14 22 23 35 40 40 35 34 40 38 37 39 47 40 44 40
18 23 25 20 5 8 17 16 5 6 4 15 30 3 21 20 23 18 17 14 17 18 17 16 19 21 21 28 22 23 24 31 27 29 28 40 44 48 47 45 47 29 39 47
20 22 28 15 7 13 10 8 9 7 8 30 18 8 13 20 21 21 20 15 17 18 15 13 14 13 13 19 22 24 22 19 23 29 30 36 32 33 34 48 42 48 57 61
19 20 1 12 23 16 9 10 18 5 12 18 4 10 14 18 19 18 21 16 16 22 24 25 21 23 19 14 7 10 13 17 20 29 30 29 31 44 51 61 71 76 68 56
8 13 7 26 5 9 10 24 20 10 1 4 9 11 16 19 16 17 19 19 17 21 25 26 26 30 26 23 20 14 4 1 9 17 20 23 27 30 33 37 46 49 51 55
9 6 18 10 4 4 13 11 11 10 14 14 10 13 16 17 16 18 18 19 19 22 22 21 30 32 26 29 24 21 15 9 8 14 22 21 21 23 25 29 32 34 33 40
16 6 8 7 9 9 19 4 12 13 14 13 15 13 14 14 14 16 17 16 20 19 20 23 22 20 20 20 23 24 25 23 16 13 13 19 26 24 21 24 27 30 31 35
10 9 17 9 7 13 12 8 11 12 14 15 12 10 9 11 11 13 12 13 16 17 17 16 16 18 21 23 24 22 19 18 18 18 20 21 17 21 28 30 37 38 39 33
17 17 9 6 14 6 7 7 5 9 10 8 7 6 6 8 8 8 8 11 12 13 15 17 19 22 27 28 27 23 18 17 22 21 23 21 28 25 21 23 26 34 40 44
24 11 6 5 3 12 10 8 10 10 12 9 6 3 3 3 3 3 6 8 5 7 12 16 21 26 27 27 26 25 22 20 20 20 24 26 27 29 34 33 29 31 32 38
8 4 5 8 11 14 8 14 15 13 11 8 6 5 4 4 3 4 5 2 6 10 14 16 19 25 30 28 28 27 26 26 20 20 21 25 27 27 26 26 27 29 34 37
17 18 5 7 8 10 11 11 13 14 11 11 10 9 9 7 5 6 4 7 14 17 17 19 23 25 25 26 26 29 25 22 21 18 16 23 21 22 19 18 18 27 29 24
19 18 15 12 9 11 11 10 13 10 10 10 9 8 7 5 6 7 9 11 15 18 21 23 23 22 23 25 26 25 24 31 26 16 18 18 17 14 12 10 7 17 25 32
19 17 16 17 14 16 14 11 10 9 8 4 4 3 4 6 7 9 9 12 18 20 20 18 19 18 21 21 23 21 22 22 24 15 17 18 18 17 10 13 16 16 14 13
11 2 3 3 14 17 14 10 7 6 3 3 5 4 6 8 12 12 12 19 22 19 18 17 19 25 17 18 23 22 22 21 16 17 19 18 19 18 10 13 9 11 5 7
7 3 6 9 13 14 12 9 5 3 2 5 12 16 15 14 15 17 16 20 21 21 20 21 26 22 19 22 28 22 23 22 20 18 17 17 13 10 15 10 6 8 4 2
14 15 14 14 12 10 9 6 4 5 9 13 16 17 18 18 18 14 17 20 15 16 19 18 17 15 19 24 28 25 23 21 19 20 13 11 13 6 6 10 9 6 5 11
18 19 16 13 12 9 5 3 7 10 11 11 11 11 11 10 12 17 20 15 14 17 20 17 11 12 16 19 20 19 20 19 18 18 18 15 14 5 4 13 10 7 8 10
12 12 10 8 7 8 7 6 6 4 1 1 2 5 9 13 15 14 12 11 15 24 13 9 8 13 7 11 16 16 14 17 16 16 19 19 11 7 2 7 9 7 7 7
8 11 9 7 7 5 4 5 6 4 5 6 8 9 10 11 8 8 10 12 14 20 15 8 12 7 3 11 12 13 13 13 11 11 13 14 12 11 5 0 4 10 11 9
4 7 4 4 5 8 8 8 8 10 11 13 14 14 12 12 12 12 14 20 24 24 15 16 13 10 12 12 11 12 12 11 8 10 11 13 11 9 10 3 5 2 14 16
5 8 11 12 12 8 10 10 14 17 19 23 24 21 20 18 17 15 16 20 27 24 15 19 18 13 12 15 15 16 16 15 17 15 11 12 10 9 7 6 1 5 7 8
9 7 11 10 9 11 13 16 24 31 35 35 30 23 22 22 24 23 20 20 18 21 16 17 19 20 21 20 18 17 18 17 15 16 18 17 14 12 9 7 8 5 8 13
5 7 8 11 7 13 16 20 23 28 29 29 27 23 25 22 22 25 29 26 24 20 19 19 20 21 19 22 23 22 23 22 20 20 19 18 16 16 16 14 14 15 16 17
Wind_Direction_850mb
282 286 285 284 289 295 280 255 268 303 293 30 41 353 45 45 79 69 61 57 58 75 99 103 108 128 51 331 334 329 279 277 213 211 213 200 201 205 207 216 222 226 226 237
288 273 269 276 285 289 281 291 260 285 293 57 67 293 72 34 44 44 27 34 33 33 38 21 356 242 214 287 34 139 252 252 227 215 218 209 205 210 202 213 227 234 232 233
284 291 285 279 286 322 284 265 306 314 347 127 131 157 68 72 68 62 51 41 45 41 24 52 63 88 103 144 167 132 161 205 209 213 245 239 226 223 216 215 249 256 243 239
269 278 267 15 63 34 310 291 260 273 48 27 324 39 38 28 46 49 39 36 43 46 49 53 50 54 112 97 157 165 208 216 211 197 209 225 222 225 237 246 272 248 248 249
268 261 275 172 84 343 325 298 182 117 87 121 268 317 89 60 57 58 48 35 38 35 33 70 89 101 144 145 159 181 210 219 230 215 220 224 229 249 257 257 249 260 258 263
293 287 280 58 48 4 315 305 135 78 69 197 253 358 84 66 55 53 49 40 30 42 44 57 87 85 101 147 174 183 185 180 209 224 223 239 248 258 247 255 266 264 274 275
278 274 130 10 328 327 290 338 340 216 211 239 259 43 107 78 63 60 67 65 55 48 59 64 60 82 82 89 116 154 200 214 239 252 262 267 252 250 244 256 263 270 269 265
309 287 247 6 313 293 2 328 337 326 11 153 119 113 86 78 69 62 67 70 70 69 61 51 52 62 62 67 72 72 60 229 243 261 271 270 262 262 263 265 264 265 267 265
336 332 337 343 231 119 26 326 30 63 104 123 91 70 72 74 84 91 97 91 81 68 64 55 53 61 55 53 54 56 41 13 323 292 280 279 283 275 275 278 276 276 270 273
322 29 9 176 200 186 145 49 63 68 60 56 67 67 69 74 79 88 89 80 76 71 58 48 38 33 28 20 20 18 18 10 8 357 317 279 258 252 259 260 261 259 267 268
315 41 338 160 128 111 129 112 83 69 54 52 53 63 87 96 78 74 70 59 55 56 49 40 26 15 11 6 6 6 0 360 353 346 349 347 319 292 277 272 272 269 277 274
333 2 327 174 75 5 87 78 44 30 19 18 30 53 85 104 98 85 83 73 55 31 24 14 14 3 359 354 351 342 353 344 332 343 345 331 338 326 306 295 279 270 263 261
313 28 352 75 59 45 15 34 63 32 358 351 4 5 38 35 43 17 64 67 45 3 350 347 355 350 347 343 341 335 332 328 316 329 325 329 328 332 335 319 302 288 279 267
269 157 239 177 171 199 159 95 64 49 44 44 47 41 32 353 3 9 52 48 334 334 323 327 338 335 332 337 334 326 324 327 320 305 313 318 317 326 331 324 320 313 302 283
193 189 201 188 174 142 128 103 70 49 51 56 59 51 41 22 32 53 38 341 317 317 322 330 329 330 326 329 327 322 320 310 298 297 300 312 318 325 328 330 348 358 348 318
182 187 205 219 194 168 142 110 71 58 59 63 55 52 66 64 31 5 346 335 332 328 324 318 317 317 326 328 328 325 316 315 323 307 298 306 307 320 327 326 4 12 16 23
188 206 226 230 202 178 159 133 114 113 114 92 78 55 29 351 351 347 348 334 329 327 320 318 313 322 327 331 329 323 318 315 314 319 296 293 301 301 313 335 325 335 328 7
196 226 252 234 171 168 164 153 134 129 139 220 245 273 274 297 315 321 332 333 331 328 327 326 320 328 343 339 337 340 331 325 323 317 307 300 297 299 296 307 324 315 345 36
238 237 143 140 157 164 168 167 175 196 262 278 273 278 279 284 297 309 316 330 330 332 329 334 323 349 346 356 353 353 342 337 330 324 312 305 304 308 307 304 295 274 269 99
90 100 114 119 126 142 155 166 223 290 296 287 280 280 279 288 294 300 311 322 324 325 333 328 342 353 353 354 356 357 348 345 339 324 327 338 349 337 308 260 201 210 42 85
74 85 88 91 92 93 91 3 339 317 297 289 289 286 289 301 301 298 310 317 330 328 333 339 350 346 352 333 347 339 354 357 4 354 358 360 357 8 59 157 180 153 128 127
34 48 47 48 60 65 55 28 2 18 87 194 331 328 321 313 303 300 293 295 313 318 323 324 339 313 337 349 354 336 344 347 356 10 20 23 13 12 40 197 206 210 218 253
19 54 48 67 80 73 28 11 2 348 318 293 301 309 326 325 306 298 314 313 323 301 311 285 277 308 251 331 326 332 339 341 336 333 341 350 343 1 359 285 243 231 224 221
17 40 359 330 310 294 281 288 311 305 293 287 280 272 276 299 297 300 295 312 319 323 292 246 272 291 269 305 299 306 309 306 332 344 348 9 355 341 340 51 120 152 161 159
280 292 305 310 313 321 314 308 316 303 304 300 292 280 273 275 269 284 287 304 306 315 294 268 261 275 282 290 291 300 302 296 290 292 311 329 336 344 347 330 42 173 196 198
258 293 302 311 316 325 316 321 313 315 313 308 299 283 277 276 274 267 275 288 289 289 278 254 262 268 274 276 281 284 291 299 305 289 285 291 290 291 291 275 277 261 225 210
305 324 309 303 312 329 327 327 326 328 324 315 302 287 282 277 280 273 268 260 271 272 266 260 260 266 274 267 273 278 286 290 290 284 287 285 283 278 268 266 255 247 236 227